Regional Weather Roundup
Issued by NWS

Home | Current Version | Previous Version | Graphics & Text | Print | Product List | Glossary On
Versions: 1 2 3 4 5 6 7 8 9 10 11 12 13 14 15 16 17 18 19 20 21 22 23 24 25 26 27 28 29 30 31 32 33 34 35 36 37 38 39 40 41 42 43 44 45 46 47 48 49 50
000
ASUS45 KBOU 182207
RWRCO

WEATHER ROUNDUP FOR COLORADO
NATIONAL WEATHER SERVICE DENVER/BOULDER CO
300 PM MST THU DEC 18 2014

NOTE: "FAIR" INDICATES FEW OR NO CLOUDS BELOW 12000 FEET WITH NO
SIGNIFICANT WEATHER AND/OR OBSTRUCTIONS TO VISIBILITY.

COZ001>005-013-030-031-182300-
...NORTHWEST COLORADO...

CITY           SKY/WX    TMP DP  RH WIND       PRES   REMARKS
CRAIG          MOSUNNY   26  23  88 CALM      30.11S
HAYDEN         MOSUNNY   27  21  80 CALM      30.10S
MEEKER         PTSUNNY   30  24  78 VRB3      30.10S
MOUNT WERNER   NOT AVBL
STEAMBOAT SPGS MOSUNNY   31  23  71 S5        30.09R WCI  26
WALDEN         PTSUNNY   14  10  85 CALM      30.05S
$$

COZ006>008-011-182300-
...WEST CENTRAL VALLEYS...

CITY           SKY/WX    TMP DP  RH WIND       PRES   REMARKS
GRAND JUNCTION PTSUNNY   38  31  76 NW8       30.11S
MONTROSE       CLOUDY    37  32  82 N7        30.11S
EAGLE          PTSUNNY   36  28  75 CALM      30.09R
RIFLE          LGT SNOW  36  30  79 N3        30.10R
DELTA          PTSUNNY   42  32  67 CALM      30.10S
NUCLA          CLOUDY    36  32  87 W9        30.15R
$$

COZ017>023-064>068-182300-
...SOUTHWEST COLORADO...

CITY           SKY/WX    TMP DP  RH WIND       PRES   REMARKS
DURANGO        CLOUDY    33  27  78 SW6       30.08F WCI  28
CORTEZ         CLOUDY    37  29  72 CALM      30.11F
PAGOSA SPRINGS CLOUDY    32  23  69 W5        30.08S WCI  27
TELLURIDE      CLOUDY    26  23  87 W6        30.08S WCI  20
WOLF CREEK PAS SNOW      14  12  92 MISG      30.04S VSB 1/4
$$

COZ009-010-012-014-032>034-037-058>063-182300-
...CENTRAL COLORADO...

CITY           SKY/WX    TMP DP  RH WIND       PRES   REMARKS
ASPEN          FLURRIES  29  24  82 N3        30.06R
BUENA VISTA    CLOUDY    37  15  41 SW8       30.00R
COPPER MTN     LGT SNOW  19  14  79 W17       30.02S VSB 3/4 WCI   4
BERTHOUD PASS  CLOUDY    10   5  79 MISG      30.02S
COTTONWOOD PAS CLOUDY    34   9  35 CALM      30.01R
GUNNISON       MOSUNNY   30  21  69 N7        30.09R WCI  23
KREMMLING      FLURRIES  28  21  74 CALM      30.09S
LEADVILLE      CLOUDY    23  13  65 NW8       30.01R WCI  14
MONARCH PASS   CLOUDY    16  12  86 MISG      30.12R
SALIDA         MOSUNNY   39  17  42 S12G21    30.08R
SUNLIGHT       LGT SNOW N/A N/A N/A CALM      30.06S
WILKERSON PASS MOSUNNY   23  14  68 SW3       30.03R
$$

COZ069>075-182300-
...SAN LUIS VALLEY/SANGRE DE CRISTO MOUNTAINS...

CITY           SKY/WX    TMP DP  RH WIND       PRES   REMARKS
ALAMOSA        CLOUDY    30  21  69 SE8       30.07R WCI  22
LA VETA PASS   MOSUNNY   19  16  86 MISG      30.01S
SAGUACHE       MOSUNNY   34  21  60 SW3       30.06R
$$

COZ035-036-038>040-182300-
...NORTHERN COLORADO FRONT RANGE...

CITY           SKY/WX    TMP DP  RH WIND       PRES   REMARKS
DENVER INTL AP MOSUNNY   43  26  51 CALM      30.00R
DMNS CITY PARK   N/A     43  25  49 N6        30.00R
AURORA         MOSUNNY   44  28  53 N6        30.00R
FRONT RANGE AP NOT AVBL
ERIE MUNI ARPT   N/A     44  24  45 N5        30.01R
BOULDER MUN AP MOSUNNY   41  23  48 N5        30.00S
CENTENNIAL     MOSUNNY   44  24  45 N5        29.99R
BROOMFIELD     PTSUNNY   43  25  49 CALM      30.01R
FORT COLLINS   MOSUNNY   43  27  52 E5        30.03R
LONGMONT       MOSUNNY   45  26  47 CALM      30.03R
$$

COZ041-046-047-076>085-087-088-182300-
...PIKES PEAK/PALMER DIVIDE AND SOUTHERN FOOTHILLS...

CITY           SKY/WX    TMP DP  RH WIND       PRES   REMARKS
COLO. SPRINGS  MOSUNNY   41  26  55 SE9       30.00R
A. F. ACADEMY  MOSUNNY   41  24  51 VRB5      29.99R
ELLICOTT       NOT AVBL
FALCON         NOT AVBL
FORT CARSON    MOSUNNY   43  27  52 SE9       29.99R
LIMON          SUNNY     43  21  41 S12       30.01R
MONUMENT HILL  SUNNY     37  27  65 SE8       29.99R
TRINIDAD       PTSUNNY   43  24  47 E13       29.99S
$$

COZ042>045-048>051-090-091-182300-
...NORTHEAST COLORADO...

CITY           SKY/WX    TMP DP  RH WIND       PRES   REMARKS
GREELEY ARPT   MOSUNNY   43  27  52 E3        30.01S
AKRON          PTSUNNY   34  27  75 W5        30.03R WCI  30
BURLINGTON     SUNNY     44  22  41 N5        30.04R
WRAY           PTSUNNY   30  27  88 CALM      30.05S FOG
STERLING       PTSUNNY   32  27  80 S7        30.04R WCI  26
HOLYOKE        NOT AVBL
FORT MORGAN    PTSUNNY   34  25  68 CALM      30.04R
$$

COZ086-089-092>099-182300-
...SOUTHEAST COLORADO...

CITY           SKY/WX    TMP DP  RH WIND       PRES   REMARKS
PUEBLO         NOT AVBL
LA JUNTA       SUNNY     43  31  62 SE9       30.03R
LAMAR          SUNNY     44  28  53 CALM      30.03S
SPRINGFIELD      N/A     44  29  55 VRB3      30.04R
$$



USA.gov is the U.S. government's official web portal to all federal, state and local government web resources and services.